Regional Weather Roundup
Issued by NWS Sterling, VA

Home | Current Version | Previous Version | Graphics & Text | Print | Product List | Glossary On
Versions: 1 2 3 4 5 6 7 8 9 10 11 12 13 14 15 16 17 18 19 20 21 22 23 24 25 26 27 28 29 30 31 32 33 34 35 36 37 38 39 40 41 42 43 44 45 46 47 48 49 50
000
ASUS41 KLWX 310510
RWRLWX

REGIONAL WEATHER ROUNDUP
NATIONAL WEATHER SERVICE BALTIMORE MD/WASHINGTON DC
100 AM EDT SUN AUG 31 2014

Note: "FAIR" indicates few or no clouds below 12,000 feet
with no significant weather and/or obstructions to visibility.
 TC=TEMPERATURE CELSIUS

 * =Non NWS site. Station does not report precipitation (e.g. rain,
    snow, etc.), thunder, or fog.

DCZ001-MDZ009-015-VAZ040>042-051-053>054-310600-
WASHINGTON METRO

CITY           SKY/WX    TMP DP  RH WIND       PRES   REMARKS
WASHINGTON NAT CLOUDY    78  71  79 S10       30.14S
DULLES         MOCLDY    74  72  93 S6        30.13S
ANDREWS AFB    PTCLDY    73  73  99 S8        30.14S
QUANTICO       PTCLDY    77  74  90 S15       30.13F
COLLEGE PARK*  MOCLDY    75  72  88 CALM      30.13F
LEESBURG*      MOCLDY    77  73  88 S5        30.14S
MANASSAS*      PTCLDY    75  75 100 S5        30.13S
GAITHERSBURG*  MOCLDY    73  70  88 SE7       30.18S

$$

MDZ006>007-011-014-310600-
BALTIMORE METRO

CITY           SKY/WX    TMP DP  RH WIND       PRES   REMARKS
BWI AIRPORT    MOCLDY    75  71  87 CALM      30.14S
MD SCIENCE CTR   N/A     78  72  81 MISG      30.14S
MARTIN STATE   CLOUDY    77  73  88 SE8       30.15S
ANNAPOLIS      CLOUDY    76  72  87 S7        30.13F
FORT MEADE*    MOCLDY    68  66  94 CALM      30.16S

$$

MDZ012-015-019>023-310600-
MARYLAND EASTERN SHORE

CITY           SKY/WX    TMP DP  RH WIND       PRES   REMARKS
OCEAN CITY     MOCLDY    76  72  87 S3        30.18R
SALISBURY      CLOUDY    75  70  84 S7        30.17R
BAY BRIDGE AP*   N/A     73  72  94 SE8       30.14S
CAMBRIDGE*     PTCLDY    72  68  88 SE5       30.15S
EASTON*        PTCLDY    74  72  92 S8        30.18F

$$

MDZ017>025-310600-
SOUTHERN MARYLAND

CITY           SKY/WX    TMP DP  RH WIND       PRES   REMARKS
PATUXENT RIVER PTCLDY    75  72  90 S3        30.15S
ST INIGOES     PTCLDY    77  72  84 S5        30.15R
LEONARDTOWN*   PTCLDY    73  70  88 SE3       30.16F

$$

MDZ003>005-310600-
NORTH CENTRAL MARYLAND

CITY           SKY/WX    TMP DP  RH WIND       PRES   REMARKS
FREDERICK*     PTCLDY    70  70 100 CALM      30.15S
HAGERSTOWN APT CLEAR     75  70  84 S9        30.11F
WESTMINSTER*   CLOUDY    73  70  88 S7        30.14F

$$

MDZ501>502-310600-
WESTERN MARYLAND

CITY           SKY/WX    TMP DP  RH WIND       PRES   REMARKS
OAKLAND*         N/A     66 N/A N/A S7        30.20S
CUMBERLAND*    CLOUDY    70  70 100 CALM      30.15S VSB 1/4

$$

VAZ025>031-310600-
SHENANDOAH VALLEY

CITY           SKY/WX    TMP DP  RH WIND       PRES   REMARKS
WINCHESTER*    CLEAR     73  70  88 S3        30.12S
STAUNTON*      CLEAR     72  67  85 SW3       30.18F

$$

WVZ021-048>050-054>055-310600-
EASTERN WEST VIRGINIA PANHANDLE

CITY           SKY/WX    TMP DP  RH WIND       PRES   REMARKS
MARTINSBURG    CLEAR     71  67  87 CALM      30.11F
PETERSBURG*    NOT AVBL

$$

VAZ036>039-050-310600-
CENTRAL FOOTHILLS

CITY           SKY/WX    TMP DP  RH WIND       PRES   REMARKS
CHARLOTTESVILL PTCLDY    75  72  90 S9        30.14S
ORANGE*        PTCLDY    72  70  94 SE3       30.16S

$$

VAZ055>057-310600-
NORTH AND CENTRAL PIEDMONT

CITY           SKY/WX    TMP DP  RH WIND       PRES   REMARKS
FREDERICKSBRG* PTCLDY    76  75  96 S7        30.12F
STAFFORD*      PTCLDY    73  73 100 CALM      30.17F

$$

NCZ024-NYZ072-PAZ021-071-VAZ022-071-310600-
OTHER REGIONAL OBSERVATIONS

CITY           SKY/WX    TMP DP  RH WIND       PRES   REMARKS
NEW YORK CITY  CLOUDY    73  64  73 VRB5      30.18F
PHILADELPHIA   MOCLDY    73  65  75 S7        30.16F
PITTSBURGH     CLOUDY    76  67  73 S5        30.06R
ROANOKE        CLEAR     72  69  90 CALM      30.19S
RICHMOND       PTCLDY    77  73  87 S5        30.15S
RALEIGH        MOCLDY    77  71  82 S7        30.18S

$$

ANZ530>537-310600-
MARINE OBSERVATIONS

STATION/POSITION TIME  TEMP    WIND        PRES
                       AIR SEA DIR/SP/G
                 (UTC) (F)     (DEG/KT/KT) (MB)
THOMAS PT LIGHT  0500   76 78  160/ 12/ 13 1021.2F
BALT KEY BRIDGE  0500          140/  9/ 10 1020.3R
COVE POINT       0500   77     190/ 11/ 13 1020.9S
LEWISETTA        0500   76 79  190/  6/  7 1020.8S
SOLOMONS ISLAND  0500      79                N/A
PINEY POINT      0500          190/ 10/ 11   N/A

$$



USA.gov is the U.S. government's official web portal to all federal, state and local government web resources and services.